Location: Cuiry
(49.3858°N, 3.7708°E)
Time: 00:59:14
(UTC+00:00)

UNK - Pass Details

Date: 20 April 2026
Orbit: 653 x 673 km, 98.4° (Epoch: 19 May)

Event Time Altitude Azimuth Distance (km) Brightness Sun altitude
Rises 02:29:18 0° 107° (ESE) 3,015 7.4 -19.1°
Reaches altitude 10° 02:32:47 10° 79° (ENE) 2,103 7.1 -18.7°
Maximum altitude 02:34:41 13° 54° (NE) 1,938 7.2 -18.5°
Drops below altitude 10° 02:36:35 10° 29° (NNE) 2,104 7.4 -18.3°
Sets 02:40:04 0° 1° (N) 3,019 7.8 -17.9°
